Denmark, ME (04022)

2:27 PM EDT on August 04, 2015 (GMT -0400)
misty lane | | Change Station
CLOSE
Current Station
Personal Weather Station
Location: Brownfield, ME
Elevation: 404 ft
Nearby Weather Stations
Active Advisory: Severe Thunderstorm Watch Active Notice: Local Storm Report

Elev 404 ft 43.94 °N, 70.87 °W | Updated 34 seconds ago

Clear
Clear
81.9 °F
Feels Like 83 °F
N
1.0
Wind Variable Wind from NW
Gusts 2.0 mph

Today
High -- | Low -- °F
--% Chance of Precip.
Yesterday
High -- | Low -- °F
Precip. -- in
5:34 AM 8:03 PM
Waning Gibbous, 75% visible
Pressure 29.78 in
Visibility 10.0 miles
Clouds Few 6000 ft
Heat Index 83 °F
Dew Point 61 °F
Humidity 50%
Rainfall 0.02 in
Snow Depth Not available.
UV 9 out of 12
Pollen 4.90 out of 12
Air Quality Not available.
Flu Activity Not available.
METAR KIZG 041754Z AUTO VRB06KT 10SM FEW060 28/18 A2978 RMK AO2 SLP084 T02830178 10294 20183 56019

More Conditions Fewer Conditions

Pressure 29.78 in
Visibility 10.0 miles
Clouds Few 6000 ft
Heat Index 83 °F
Dew Point 61 °F
Humidity 50%
Rainfall 0.02 in
Snow Depth Not available.
UV 9 out of 12
Pollen 4.90 out of 12
Air Quality Not available.
Flu Activity Not available.
METAR KIZG 041754Z AUTO VRB06KT 10SM FEW060 28/18 A2978 RMK AO2 SLP084 T02830178 10294 20183 56019

More Conditions Fewer Conditions

10-Day Weather Forecast

×

Almanac

Astronomy

Aug. 04, 2015 Rise Set
Actual Time
Civil Twilight
Nautical Twilight
Astronomical Twilight
Moon
Length of Visible Light
Length of Day
Tomorrow will be .
, % of the Moon is Illuminated

Today's Extremes

State Highs State Lows

Community

WunderPhotos

Upload Photos

1,843,937 photos uploaded!

WunderBlogs® & News

Nearby

Air Quality

  Air Quality AQ Index Pollutant
Not available.

Snow Depth

Station Depth Elevation

Earthquake Activity

City Distance Mag. Time & Date
Minimum magnitude displayed is 2.5.

Coastal Water Temperatures

Place Temperature

Stations

Nearby Weather Stations

Station Location Temp. Windchill Dew Point Humidity Wind Precip. Elev Updated Type
                   
Severe Thunderstorm Watch
Statement as of 2:24 PM EDT on August 04, 2015

Severe Thunderstorm Watch 469 remains in effect until 800 PM EDT

ME
. Maine counties included are

Androscoggin Aroostook Cumberland
Franklin Hancock Kennebec
Knox Lincoln Oxford
Penobscot Piscataquis Sagadahoc
Somerset Waldo Washington
York